GW2085 Weather Reports


Display with metric or nautical units.
time (UTC)temp
F
wind
direction
speed
MPH
gust
MPH
rain 1hr
in
rain 24hr
in
rain mn
in
humidity
%
barometer
mb
20260903204558 84 302 2.0 7.0 0.00 0.00 0.00 47 1012.9
20260903203058 83 212 3.0 8.0 0.00 0.00 0.00 47 1012.9
20260903201556 82 314 3.0 11.0 0.00 0.00 0.00 50 1013.1
20260903200058 83 158 2.0 12.0 0.00 0.00 0.00 48 1013.2
20260903194559 83 207 4.0 10.0 0.00 0.00 0.00 48 1013.2
20260903193104 84 259 3.0 10.0 0.00 0.00 0.00 44 1013.3
20260903191554 85 268 1.0 5.0 0.00 0.00 0.00 36 1013.4
20260903190104 84 257 2.0 8.0 0.00 0.00 0.00 35 1013.7
20260903184600 83 0 1.0 5.0 0.00 0.00 0.00 34 1014.0
20260903183056 83 240 2.0 5.0 0.00 0.00 0.00 31 1014.4
20260903181553 82 162 2.0 5.0 0.00 0.00 0.00 30 1014.6
20260903180108 81 82 0.0 4.0 0.00 0.00 0.00 35 1014.6
20260903174557 79 234 1.0 3.0 0.00 0.00 0.00 42 1014.6
20260903173055 77 209 3.0 5.0 0.00 0.00 0.00 44 1014.6
20260903171613 76 195 1.0 3.0 0.00 0.00 0.00 53 1014.7
20260903170057 74 145 2.0 5.0 0.00 0.00 0.00 54 1014.8
20260903164604 74 224 1.0 4.0 0.00 0.00 0.00 56 1014.7
20260903163102 72 0 1.0 3.0 0.00 0.00 0.00 58 1014.9
20260903161559 69 256 1.0 3.0 0.00 0.00 0.00 66 1015.0
20260903160105 67 208 0.0 2.0 0.00 0.00 0.00 69 1015.0
20260903154605 64 154 0.0 2.0 0.00 0.00 0.00 72 1015.2
20260903153108 62 0 0.0 2.0 0.00 0.00 0.00 76 1015.3
20260903151612 59 164 1.0 2.0 0.00 0.00 0.00 81 1015.2
20260903150107 57 162 0.0 0.0 0.00 0.00 0.00 86 1015.3
20260903144559 55 0 0.0 3.0 0.00 0.00 0.00 90 1015.4
20260903143102 55 0 0.0 1.0 0.00 0.00 0.00 92 1015.2
20260903141555 54 0 0.0 0.0 0.00 0.00 0.00 92 1015.0
20260903140105 53 0 0.0 0.0 0.00 0.00 0.00 92 1014.9
20260903134610 53 0 0.0 0.0 0.00 0.00 0.00 92 1014.6
20260903133059 53 0 0.0 0.0 0.00 0.00 0.00 92 1014.6
20260903131603 53 0 0.0 0.0 0.00 0.00 0.00 92 1014.4
20260903124608 53 0 0.0 0.0 0.00 0.00 0.00 92 1014.4
20260903123105 53 0 0.0 0.0 0.00 0.00 0.00 92 1014.4
20260903121554 53 0 0.0 0.0 0.00 0.00 0.00 91 1014.2
20260903120106 54 0 0.0 0.0 0.00 0.00 0.00 91 1014.2
20260903114558 54 0 0.0 0.0 0.00 0.00 0.00 91 1014.2
20260903113058 54 0 0.0 0.0 0.00 0.00 0.00 91 1014.4
20260903111554 54 0 0.0 0.0 0.00 0.00 0.00 91 1014.4
20260903110059 55 0 0.0 0.0 0.00 0.00 0.00 91 1014.5
20260903104604 55 0 0.0 0.0 0.00 0.00 0.00 90 1014.1
20260903103058 55 0 0.0 0.0 0.00 0.00 0.00 91 1014.2
20260903101557 55 0 0.0 0.0 0.00 0.00 0.00 90 1014.3
20260903100055 56 0 0.0 0.0 0.00 0.00 0.00 90 1014.6
20260903094608 56 0 0.0 0.0 0.00 0.00 0.00 90 1014.7
20260903093103 56 0 0.0 0.0 0.00 0.00 0.00 90 1014.8
20260903091556 56 0 0.0 0.0 0.00 0.00 0.00 90 1014.9
20260903090105 56 0 0.0 0.0 0.00 0.00 0.00 90 1015.0
20260903084601 57 0 0.0 0.0 0.00 0.00 0.00 90 1015.3
20260903083056 57 0 0.0 0.0 0.00 0.00 0.00 90 1015.2
20260903081602 57 0 0.0 0.0 0.00 0.00 0.00 89 1015.4
20260903080054 57 0 0.0 0.0 0.00 0.00 0.00 89 1015.6
20260903074556 58 0 0.0 0.0 0.00 0.00 0.00 89 1015.5
20260903073101 58 0 0.0 0.0 0.00 0.00 0.00 88 1015.4
20260903071604 58 0 0.0 0.0 0.00 0.00 0.00 88 1015.3
20260903070056 59 0 0.0 0.0 0.00 0.00 0.00 88 1015.3
20260903064555 59 0 0.0 0.0 0.00 0.00 0.00 87 1015.3
20260903063100 60 0 0.0 0.0 0.00 0.00 0.00 87 1015.2
20260903061613 60 0 0.0 0.0 0.00 0.00 0.00 86 1015.3
20260903060058 60 0 0.0 0.0 0.00 0.00 0.00 86 1015.4
20260903054553 61 0 0.0 0.0 0.00 0.00 0.00 85 1015.5
20260903053056 61 0 0.0 0.0 0.00 0.00 0.00 84 1015.7
20260903051557 62 0 0.0 0.0 0.00 0.00 0.00 84 1015.7
20260903050107 62 0 0.0 0.0 0.00 0.00 0.00 83 1015.8
20260903044559 63 0 0.0 0.0 0.00 0.00 0.00 82 1015.7
20260903043058 63 0 0.0 0.0 0.00 0.00 0.00 81 1015.6
20260903041604 63 0 0.0 0.0 0.00 0.00 0.00 80 1015.5
20260903040105 64 0 0.0 0.0 0.00 0.00 0.00 78 1015.3
20260903034607 65 0 0.0 0.0 0.00 0.00 0.00 77 1015.0
20260903033109 65 180 0.0 0.0 0.00 0.00 0.00 75 1014.7
20260903031615 66 0 0.0 1.0 0.00 0.00 0.00 73 1014.6
20260903030112 67 233 0.0 1.0 0.00 0.00 0.00 70 1014.5
20260903024602 68 210 0.0 2.0 0.00 0.00 0.00 68 1014.7
20260903023137 69 124 0.0 4.0 0.00 0.00 0.00 63 1014.6
20260903021603 70 276 0.0 5.0 0.00 0.00 0.00 58 1014.7
20260903020104 72 273 1.0 6.0 0.00 0.00 0.00 58 1014.6
20260903014602 73 176 1.0 3.0 0.00 0.00 0.00 54 1014.5
20260903013057 76 269 2.0 6.0 0.00 0.00 0.00 48 1014.4
20260903011601 77 260 1.0 5.0 0.00 0.00 0.00 49 1014.3
20260903004556 79 253 1.0 5.0 0.00 0.00 0.00 47 1014.2
20260903003055 79 197 2.0 6.0 0.00 0.00 0.00 45 1014.2
20260903001558 80 70 2.0 7.0 0.00 0.00 0.00 46 1014.2
20260903000056 79 279 3.0 7.0 0.00 0.00 0.00 47 1014.2
20260902234555 80 144 4.0 11.0 0.00 0.00 0.00 45 1014.3
20260902233102 80 179 3.0 6.0 0.00 0.00 0.00 46 1014.4
20260902231603 81 270 4.0 9.0 0.00 0.00 0.00 45 1014.4
20260902230113 82 293 3.0 8.0 0.00 0.00 0.00 45 1014.4
20260902224552 82 242 3.0 7.0 0.00 0.00 0.00 45 1014.6
20260902223057 82 237 2.0 8.0 0.00 0.00 0.00 45 1014.6
20260902221558 83 0 2.0 7.0 0.00 0.00 0.00 43 1014.8
20260902214555 82 265 3.0 10.0 0.00 0.00 0.00 44 1014.8
20260902213056 84 182 4.0 11.0 0.00 0.00 0.00 43 1014.9
20260902211612 85 274 3.0 9.0 0.00 0.00 0.00 41 1014.8
20260902210058 85 326 4.0 10.0 0.00 0.00 0.00 41 1014.8